Tracking 31027 objects as of 19-Jul-2025
HD Live streaming from Space Station
objects crossing your sky now

METEOR 2-8 DEB

Track METEOR 2-8 DEB now!
10-day predictions


NORAD ID: 36319
Int'l Code: 1982-025D
Perigee: 781.4 km
Apogee: 810.9 km
Inclination: 82.5 °
Period: 100.6 minutes
Semi major axis: 7167 km
RCS: 0.0062 m2 (small)
Launch date: March 25, 1982
Source: Commonwealth of Independent States (former USSR) (CIS)
Launch site: PLESETSK MISSILE AND SPACE COMPLEX (PKMTR)

Note: This is SATELLITE DEBRIS
Your satellite tracking list
STARLINK-1749
Track 1 satellite(s)




NASA's NSSDC Master Catalog

Two Line Element Set (TLE):
1 36319U 82025D   25199.43587220  .00004203  00000-0  15946-2 0  9992
2 36319  82.5189  93.8519 0020587 295.5399  64.3658 14.30806986146273
Source of the keplerian elements: AFSPC